Wind_Speed
5 5 4 4 4 5 6 6 5 4 4 2 1 1 1 2 3 3 4 4 4 5 4 5 5 5 4 4 4 5 5 5 6 6 6 6 5 5 6 7 8 8 9
5 5 5 5 5 6 7 7 6 6 5 3 2 2 1 0 0 1 1 2 2 2 2 2 2 3 3 3 3 3 3 4 4 4 5 5 5 5 6 6 7 8 8
6 6 6 6 7 7 7 7 8 7 6 5 4 3 3 2 2 2 1 1 1 0 0 0 0 0 1 1 2 2 2 2 3 3 4 4 5 5 6 6 6 7 7
7 7 7 7 8 8 8 8 8 7 7 6 6 5 5 4 4 4 4 3 3 3 3 2 2 2 2 2 2 3 3 2 2 3 3 4 4 5 6 6 6 6 7
7 8 8 8 9 9 9 9 9 8 8 8 8 7 7 7 6 6 6 6 6 6 6 5 5 4 4 4 4 4 4 4 4 4 4 4 4 5 6 6 6 6 7
8 8 9 9 10 10 10 10 10 10 10 10 10 9 9 9 8 8 8 8 8 9 9 8 8 7 7 6 6 6 6 6 6 5 5 5 5 6 6 6 6 7 7
9 9 10 11 12 12 12 12 12 12 12 12 11 11 11 10 10 10 10 10 11 11 11 10 10 10 9 8 8 8 8 8 8 8 7 7 7 7 7 7 7 8 8
11 11 12 13 14 14 14 14 15 15 15 14 14 14 13 13 12 12 12 12 12 12 13 12 12 12 12 11 10 10 10 11 11 10 10 9 9 9 9 9 9 9 9
13 14 14 15 15 15 16 16 17 17 17 16 16 16 15 15 15 15 15 15 14 14 14 14 14 14 14 13 13 12 12 13 13 13 12 12 12 12 11 11 11 11 10
17 17 17 17 17 17 18 18 18 19 18 18 18 18 17 17 18 17 17 17 16 16 16 16 15 15 15 15 15 15 15 15 15 15 15 15 15 14 14 14 13 12 12
20 20 20 21 20 20 21 21 21 21 21 21 21 21 20 20 20 20 19 19 18 18 18 18 17 17 16 16 16 17 17 17 18 18 18 18 17 17 17 16 16 15 14
23 23 22 23 23 23 24 24 24 24 24 24 24 24 22 23 23 22 22 22 22 20 20 20 20 20 20 19 19 19 19 20 20 20 20 20 20 20 20 19 18 17 16
24 24 23 24 24 25 25 26 25 25 26 26 25 24 25 24 23 24 24 24 23 23 22 21 21 22 23 22 21 20 20 20 22 22 23 23 23 23 23 22 21 20 19
25 25 25 25 25 26 26 26 26 26 26 25 25 24 25 25 25 25 26 25 25 24 23 23 22 23 23 23 23 22 23 23 23 23 25 25 26 25 25 25 25 23 22
26 26 26 27 26 26 25 24 24 24 24 24 24 24 24 26 26 25 24 25 25 26 26 26 25 24 24 23 23 23 23 25 25 25 24 25 27 27 28 28 28 27 26
28 27 27 25 24 24 23 22 22 23 23 24 23 23 23 25 25 25 25 26 26 26 27 27 27 25 24 24 24 24 25 26 26 26 26 26 27 29 29 30 30 29 28
26 26 26 24 22 21 22 23 23 23 23 23 24 24 24 25 25 24 25 25 26 26 25 25 25 25 25 25 26 26 26 27 28 28 28 28 29 30 30 31 31 31 31
23 23 22 21 21 20 20 21 21 21 21 23 24 23 24 25 24 24 25 25 25 26 26 24 24 25 27 27 27 28 29 28 29 30 29 30 31 31 32 32 32 33 33
21 21 20 20 19 19 19 19 20 20 21 22 22 23 24 24 24 25 26 26 26 26 26 26 26 27 27 29 30 30 30 29 29 30 30 31 31 33 33 33 34 34 35
20 20 19 18 18 18 19 20 21 22 22 22 23 23 24 24 25 26 27 27 27 28 28 29 29 29 30 30 31 31 31 31 31 31 30 31 31 32 33 33 34 35 35
18 17 17 17 17 19 20 21 22 23 23 24 24 24 25 25 26 27 27 28 29 29 30 31 31 31 31 32 32 32 33 33 32 32 31 32 32 32 33 34 34 35 35
17 17 16 16 18 20 21 22 23 24 24 24 24 25 25 26 27 28 29 29 30 31 31 32 33 33 33 33 33 33 33 34 34 34 33 34 34 35 35 35 35 34 35
15 16 16 17 19 21 21 22 23 24 25 26 26 26 27 27 27 28 29 30 31 31 32 33 34 34 35 35 34 34 34 34 35 35 35 36 36 36 37 36 36 35 35
15 16 17 19 20 21 22 24 25 26 27 28 28 28 28 29 29 30 30 31 32 33 33 34 35 35 36 36 36 36 35 35 36 37 38 37 38 38 38 38 37 37 37
15 17 18 20 21 22 24 25 26 27 28 29 29 29 30 30 31 31 32 32 33 34 34 34 35 36 36 36 36 36 36 36 37 38 39 40 40 40 40 40 39 38 37
17 19 20 22 23 24 25 26 27 28 29 29 30 30 31 31 32 32 33 33 34 35 35 36 36 36 37 37 37 37 37 37 38 38 38 39 41 41 41 42 42 40 39
Wind_Direction
19 18 17 10 356 340 331 327 324 324 327 337 3 34 57 72 76 76 74 71 71 69 67 68 70 75 79 81 83 85 84 82 82 86 91 93 102 113 120 122 125 127 127
4 1 358 351 342 331 324 319 315 310 309 310 313 310 307 340 85 90 79 76 70 66 60 59 64 73 86 95 96 99 97 93 90 93 100 103 105 115 123 124 123 128 130
352 346 340 337 330 323 317 313 310 307 301 299 295 289 280 268 260 255 252 257 256 249 295 345 21 56 115 133 135 139 134 122 117 112 115 118 118 121 125 126 128 133 137
343 336 331 327 321 313 308 306 305 302 296 291 288 283 277 272 266 262 261 264 264 258 251 250 246 242 228 212 199 190 184 175 163 153 145 141 138 137 136 138 142 146 147
340 334 327 322 318 311 306 305 302 296 291 286 285 282 277 274 270 266 265 267 267 264 261 257 253 247 236 228 221 212 209 202 195 187 179 171 163 160 157 156 157 160 161
337 330 322 318 314 308 304 302 299 294 290 286 283 280 276 275 272 268 268 268 268 265 264 262 259 255 248 240 235 225 219 216 210 203 198 194 188 182 179 177 172 172 173
330 325 317 313 310 305 301 300 295 291 289 285 280 277 274 272 270 268 269 270 268 265 265 264 261 258 253 247 243 235 226 223 220 214 208 205 202 199 196 194 189 185 183
322 319 313 311 308 304 299 297 295 291 287 284 278 275 271 269 269 268 269 271 271 268 263 262 261 259 255 251 247 241 232 226 224 220 216 213 211 209 206 202 199 195 192
312 311 309 306 304 300 299 295 291 290 287 283 278 274 271 270 271 271 271 272 270 267 264 262 259 259 257 253 249 244 237 232 227 224 221 219 217 214 211 209 205 201 199
306 305 302 299 296 295 295 291 288 287 283 281 280 276 274 274 273 272 271 272 271 267 265 263 260 260 260 257 251 246 241 237 232 227 224 223 221 218 215 213 211 207 204
302 302 299 297 294 291 289 288 284 280 277 277 276 275 273 273 273 271 269 271 271 269 267 264 262 260 261 257 253 249 245 241 236 231 228 227 224 221 218 217 215 212 209
299 299 296 293 292 289 286 285 283 279 275 276 276 273 274 272 272 272 270 269 268 268 268 266 263 260 259 260 256 251 246 244 240 235 231 229 227 224 221 219 218 216 214
296 295 292 291 289 288 286 284 282 280 279 277 276 276 276 276 276 274 272 270 269 269 270 270 268 265 263 261 257 254 248 246 242 238 235 231 228 226 224 222 220 220 219
294 293 291 288 285 284 284 283 283 282 280 280 280 278 277 277 279 280 276 276 274 272 272 273 269 266 265 262 258 256 252 248 245 242 239 234 231 229 227 224 222 222 221
292 290 290 287 284 284 284 284 288 286 285 284 283 284 281 279 280 280 279 276 277 274 273 271 269 266 266 263 260 257 253 250 249 245 243 238 233 231 229 228 225 224 224
290 290 293 290 290 289 289 289 290 291 289 285 282 283 284 280 280 281 279 276 277 278 274 273 270 266 266 265 262 259 256 253 251 249 244 240 235 232 231 229 227 226 226
291 293 292 292 293 294 291 291 288 293 291 286 282 283 285 283 282 284 285 278 276 278 275 272 269 266 267 266 264 262 259 255 252 249 247 244 237 233 232 231 230 229 229
293 294 291 293 294 297 294 295 292 290 291 289 287 286 286 285 284 284 283 281 279 276 273 271 272 270 267 265 263 262 259 257 254 251 248 245 240 235 233 232 231 231 230
294 294 295 297 297 298 299 299 299 297 295 293 291 288 286 283 282 282 280 279 279 276 272 270 271 270 268 265 264 261 259 257 256 251 248 245 243 239 236 234 232 231 231
294 295 294 298 301 303 303 302 301 300 298 295 293 290 288 284 282 281 279 277 276 274 272 271 270 269 267 265 264 261 258 257 255 253 251 247 243 240 237 235 235 232 232
298 298 299 301 304 306 305 305 304 303 300 297 295 292 290 287 284 281 280 277 275 274 272 270 269 268 266 264 263 260 257 256 255 252 250 247 242 238 237 236 236 234 232
305 306 306 308 309 308 307 307 306 305 304 301 298 296 294 290 287 284 280 278 276 274 272 270 268 266 265 264 262 260 258 255 252 251 251 247 243 239 237 237 236 235 233
311 314 313 315 314 312 311 310 308 308 306 304 301 298 295 292 289 286 284 280 278 275 273 270 268 266 265 264 261 260 257 255 252 249 247 245 242 240 238 239 237 235 234
318 317 315 314 313 313 312 311 310 309 307 305 302 300 297 295 292 289 286 283 280 278 275 272 268 266 264 263 262 259 257 254 251 248 246 244 242 241 239 238 237 235 234
318 317 315 315 314 314 313 312 310 309 307 305 303 301 299 297 294 291 288 284 281 278 276 273 270 267 265 263 261 258 256 253 251 248 245 243 243 242 240 238 236 235 234
319 318 318 317 316 315 314 312 311 309 308 307 305 303 301 298 295 292 289 285 282 279 277 274 272 269 266 263 260 258 255 253 250 248 245 243 242 241 240 237 235 234 233
Height
5921 5921 5920 5920 5919 5918 5917 5916 5916 5915 5914 5913 5912 5911 5911 5910 5909 5909 5909 5908 5908 5907 5907 5907 5906 5906 5906 5905 5905 5905 5904 5904 5903 5903 5903 5903 5903 5903 5903 5903 5903 5903 5904
5921 5920 5920 5919 5918 5918 5917 5916 5915 5914 5913 5912 5911 5911 5910 5909 5909 5908 5908 5908 5907 5907 5907 5907 5906 5906 5906 5906 5905 5905 5905 5904 5904 5904 5904 5903 5903 5904 5904 5904 5904 5905 5905
5920 5919 5918 5918 5917 5917 5916 5915 5914 5913 5912 5911 5910 5910 5909 5909 5908 5908 5907 5907 5907 5906 5906 5906 5906 5906 5906 5905 5905 5905 5905 5905 5905 5904 5904 5904 5904 5904 5905 5905 5905 5906 5906
5918 5918 5917 5916 5916 5915 5914 5914 5913 5912 5911 5910 5909 5909 5908 5908 5907 5907 5907 5906 5906 5906 5905 5905 5905 5905 5905 5905 5905 5905 5905 5905 5905 5905 5905 5904 5904 5905 5905 5906 5906 5907 5907
5917 5916 5915 5915 5914 5913 5913 5912 5911 5911 5910 5909 5908 5907 5907 5906 5906 5906 5905 5905 5905 5905 5904 5904 5904 5904 5904 5904 5904 5904 5904 5904 5904 5904 5904 5905 5905 5905 5906 5906 5907 5908 5908
5915 5914 5914 5913 5913 5912 5911 5910 5909 5909 5908 5907 5906 5906 5905 5905 5904 5904 5904 5903 5903 5903 5903 5903 5902 5902 5902 5902 5903 5903 5903 5904 5904 5904 5904 5904 5905 5905 5906 5907 5907 5908 5909
5914 5913 5912 5911 5911 5910 5909 5908 5907 5906 5906 5905 5904 5903 5903 5902 5902 5902 5901 5901 5901 5901 5901 5901 5900 5900 5900 5901 5901 5901 5902 5902 5903 5903 5903 5904 5905 5905 5906 5907 5907 5908 5909
5912 5911 5910 5909 5908 5907 5906 5905 5904 5903 5903 5902 5901 5900 5900 5899 5899 5899 5899 5899 5898 5898 5898 5898 5898 5898 5898 5898 5899 5899 5900 5900 5901 5902 5902 5903 5904 5904 5905 5906 5907 5908 5909
5910 5909 5908 5906 5905 5904 5903 5902 5901 5901 5900 5899 5898 5897 5897 5896 5896 5896 5896 5895 5895 5895 5895 5895 5895 5895 5895 5896 5896 5897 5897 5898 5899 5900 5901 5902 5902 5903 5904 5905 5906 5907 5908
5908 5906 5905 5904 5902 5901 5900 5899 5898 5897 5896 5895 5894 5893 5893 5893 5892 5892 5892 5892 5891 5891 5891 5891 5891 5892 5892 5892 5893 5894 5894 5895 5896 5897 5898 5900 5901 5902 5903 5904 5905 5906 5907
5905 5903 5902 5901 5899 5898 5896 5895 5894 5893 5892 5891 5890 5889 5888 5888 5887 5887 5887 5887 5887 5887 5888 5888 5888 5888 5888 5889 5889 5890 5890 5891 5893 5894 5895 5897 5898 5899 5900 5902 5903 5905 5906
5901 5900 5898 5897 5895 5894 5892 5891 5890 5888 5887 5886 5885 5884 5884 5883 5882 5882 5882 5882 5882 5883 5883 5883 5884 5884 5884 5884 5885 5885 5886 5887 5889 5890 5892 5893 5895 5896 5898 5899 5901 5902 5904
5897 5896 5894 5893 5891 5890 5888 5886 5884 5883 5882 5881 5880 5879 5878 5878 5877 5877 5877 5877 5877 5877 5877 5877 5878 5879 5879 5879 5880 5880 5882 5883 5884 5885 5887 5889 5891 5892 5894 5896 5898 5899 5901
5893 5891 5890 5888 5886 5885 5883 5881 5880 5878 5877 5876 5875 5874 5873 5873 5872 5871 5872 5872 5871 5871 5872 5872 5872 5873 5873 5873 5874 5875 5876 5878 5879 5881 5882 5884 5886 5888 5890 5892 5894 5896 5898
5887 5886 5884 5883 5882 5880 5878 5876 5874 5873 5872 5870 5869 5868 5868 5867 5866 5866 5866 5866 5866 5866 5866 5866 5866 5866 5867 5867 5868 5869 5871 5872 5873 5875 5877 5878 5880 5882 5885 5887 5889 5891 5893
5883 5881 5879 5877 5876 5875 5873 5871 5870 5868 5866 5865 5864 5864 5863 5862 5861 5860 5860 5860 5859 5860 5860 5860 5860 5860 5861 5861 5863 5863 5864 5866 5867 5869 5871 5873 5875 5877 5879 5881 5884 5886 5889
5877 5876 5874 5873 5871 5870 5868 5867 5865 5863 5861 5860 5859 5858 5858 5857 5856 5855 5854 5853 5853 5853 5854 5854 5854 5854 5855 5855 5857 5857 5858 5860 5861 5862 5864 5866 5868 5871 5873 5875 5878 5881 5883
5873 5871 5869 5868 5867 5865 5864 5862 5859 5858 5856 5855 5854 5853 5852 5851 5850 5849 5849 5848 5847 5847 5847 5848 5848 5848 5848 5849 5850 5851 5851 5853 5854 5855 5857 5859 5861 5863 5866 5869 5872 5874 5877
5869 5867 5865 5864 5862 5861 5859 5857 5855 5853 5852 5850 5849 5847 5846 5845 5844 5843 5843 5842 5841 5841 5841 5841 5841 5841 5841 5842 5843 5843 5844 5845 5847 5848 5850 5852 5854 5856 5859 5862 5864 5867 5871
5864 5863 5861 5860 5858 5857 5854 5852 5850 5848 5846 5845 5843 5842 5840 5839 5838 5837 5836 5835 5834 5834 5834 5833 5834 5834 5834 5834 5835 5836 5836 5837 5839 5841 5843 5844 5847 5849 5851 5854 5857 5860 5863
5860 5859 5857 5856 5854 5852 5850 5847 5845 5843 5841 5839 5837 5835 5834 5832 5831 5830 5828 5827 5827 5826 5826 5825 5825 5825 5825 5825 5826 5827 5828 5829 5831 5833 5835 5837 5839 5841 5844 5847 5850 5852 5856
5855 5854 5852 5850 5849 5847 5845 5842 5840 5837 5835 5833 5831 5829 5827 5825 5823 5822 5821 5819 5818 5817 5817 5817 5816 5816 5817 5817 5818 5818 5820 5821 5822 5824 5826 5828 5831 5834 5837 5839 5842 5845 5848
5852 5850 5848 5846 5845 5843 5840 5837 5835 5832 5829 5826 5824 5822 5820 5818 5816 5814 5812 5811 5809 5808 5808 5807 5807 5807 5807 5807 5808 5809 5810 5812 5813 5816 5817 5820 5823 5826 5829 5831 5834 5837 5840
5849 5847 5845 5843 5841 5838 5835 5832 5829 5826 5823 5820 5817 5814 5812 5809 5807 5805 5803 5801 5800 5799 5798 5797 5797 5797 5797 5797 5798 5799 5801 5802 5804 5806 5809 5811 5813 5816 5820 5823 5826 5829 5832
5846 5844 5842 5839 5837 5834 5830 5827 5824 5820 5816 5813 5810 5807 5804 5801 5798 5796 5794 5792 5790 5789 5788 5787 5787 5787 5787 5787 5788 5789 5791 5792 5794 5796 5799 5801 5804 5807 5810 5814 5817 5821 5824
5844 5841 5838 5835 5832 5829 5825 5822 5818 5814 5810 5806 5803 5799 5796 5792 5790 5787 5784 5782 5780 5779 5778 5777 5776 5776 5776 5776 5777 5778 5780 5782 5784 5786 5789 5791 5793 5797 5801 5804 5808 5812 5815